Weather History for Port Angeles, WA

Change the Weather History Date:

Friday, October 11, 2013

  Actual Average Record
Temperature  
Mean Temperature 47 °F -  
Max Temperature 53 °F 59 °F 70 °F (1988)
Min Temperature 41 °F 44 °F 33 °F (2002)
Degree Days  
Heating Degree Days 18    
Moisture  
Dew Point 44 °F    
Average Humidity 89    
Maximum Humidity 100    
Minimum Humidity 77    
Precipitation  
Precipitation 0.00 in - - ()
Sea Level Pressure  
Sea Level Pressure 30.12 in    
Wind  
Wind Speed 1 mph (East)    
Max Wind Speed 8 mph    
Max Gust Speed -    
Visibility 7 miles    
Events Fog    
Averages and records for this station are not official NWS values.
T = Trace of Precipitation, MM = Missing Value Source: NWS Daily Summary

Daily Weather History Graph

Daily Weather History Graph

Search for Another Location

Airport:

Trip Planner

Search our weather history database for the weather conditions in past years. The results will help you decide how hot, cold, wet, or windy it might be!

Date:

Astronomy

Oct. 11, 2013 Rise Set
Actual Time 7:28 AM PDT 6:32 PM PDT
Civil Twilight 6:56 AM PDT 7:03 PM PDT
Nautical Twilight 6:20 AM PDT 7:39 PM PDT
Astronomical Twilight 5:44 AM PDT 8:15 PM PDT
Moon 2:28 PM PDT (10/11) No Moon Set
Length of Visible Light 12h 06m
Length of Day
11h 04m
Waxing Crescent, 48% of the Moon is Illuminated
Oct 11
Waxing Crescent
Oct 11
First Quarter
Oct 18
Full
Oct 26
Last Quarter
Nov 3
New

Hourly Weather History & Observations

Time (PDT) Temp. Windchill Dew Point Humidity Pressure Visibility Wind Dir Wind Speed Gust Speed Precip Events Conditions
12:53 AM 45.0 °F - 43.0 °F 93% 30.08 in 10.0 mi Calm Calm - N/A   Overcast
1:53 AM 46.0 °F 44.8 °F 45.0 °F 96% 30.11 in 10.0 mi West 3.5 mph - N/A   Overcast
2:53 AM 46.9 °F - 46.0 °F 97% 30.11 in 10.0 mi SE 3.5 mph - N/A   Overcast
3:41 AM 46.9 °F - 45.0 °F 93% 30.10 in 10.0 mi Calm Calm - N/A   Overcast
3:53 AM 46.9 °F - 45.0 °F 93% 30.11 in 10.0 mi Calm Calm - N/A   Overcast
4:53 AM 48.0 °F - 46.9 °F 96% 30.12 in 10.0 mi Calm Calm - N/A   Overcast
5:53 AM 48.0 °F - 46.9 °F 96% 30.12 in 10.0 mi Calm Calm - N/A   Overcast
6:41 AM 44.1 °F - 42.1 °F 93% 30.12 in 1.8 mi Calm Calm - N/A   Mostly Cloudy
6:50 AM 42.8 °F - 41.0 °F 93% 30.12 in 2.5 mi Calm Calm - N/A   Scattered Clouds
6:53 AM 43.0 °F - 42.1 °F 97% 30.13 in 5.0 mi Calm Calm - N/A   Scattered Clouds
6:56 AM 42.1 °F - 41.0 °F 96% 30.12 in 1.8 mi Calm Calm - N/A   Scattered Clouds
6:59 AM 42.1 °F - 39.9 °F 92% 30.12 in 0.8 mi Calm Calm - N/A   Mist
7:24 AM 42.1 °F - 41.0 °F 96% 30.12 in 3.0 mi Calm Calm - N/A   Mostly Cloudy
7:34 AM 41.0 °F - 39.9 °F 96% 30.12 in 3.0 mi Calm Calm - N/A   Scattered Clouds
7:37 AM 42.1 °F - 39.9 °F 92% 30.13 in 1.0 mi Calm Calm - N/A   Mist
7:44 AM 42.1 °F - 39.9 °F 92% 30.13 in 0.5 mi Calm Calm - N/A Fog Fog
7:53 AM 41.0 °F - 39.9 °F 96% 30.14 in 1.0 mi Calm Calm - N/A   Mist
7:56 AM 41.0 °F - 39.9 °F 96% 30.13 in 2.0 mi Calm Calm - N/A   Scattered Clouds
8:03 AM 42.1 °F - 41.0 °F 96% 30.13 in 10.0 mi Calm Calm - N/A   Mostly Cloudy
8:30 AM 45.0 °F - 43.0 °F 93% 30.13 in 2.5 mi Calm Calm - N/A   Overcast
8:34 AM 45.0 °F - 44.1 °F 97% 30.13 in 0.8 mi Calm Calm - N/A   Mist
8:42 AM 45.0 °F 43.5 °F 44.1 °F 97% 30.13 in 0.2 mi South 3.5 mph - N/A Fog Fog
8:53 AM 46.0 °F - 46.0 °F 100% 30.14 in 0.5 mi Calm Calm - N/A Fog Fog
8:56 AM 46.9 °F - 46.0 °F 97% 30.13 in 2.0 mi Calm Calm - N/A   Mostly Cloudy
8:59 AM 46.9 °F - 46.0 °F 97% 30.13 in 8.0 mi Calm Calm - N/A   Mostly Cloudy
9:53 AM 52.0 °F - 45.0 °F 77% 30.14 in 10.0 mi ESE 6.9 mph - N/A   Clear
10:53 AM 51.1 °F - 44.1 °F 77% 30.15 in 10.0 mi East 8.1 mph - N/A   Clear
11:53 AM 51.1 °F - 46.0 °F 83% 30.15 in 10.0 mi ENE 3.5 mph - N/A   Partly Cloudy
12:20 PM 51.1 °F - 46.0 °F 83% 30.15 in 10.0 mi Variable 3.5 mph - N/A   Mostly Cloudy
12:53 PM 52.0 °F - 46.0 °F 80% 30.15 in 10.0 mi ENE 4.6 mph - N/A   Mostly Cloudy
1:18 PM 51.1 °F - 46.0 °F 83% 30.14 in 10.0 mi NE 4.6 mph - N/A   Overcast
1:45 PM 51.1 °F - 46.0 °F 83% 30.14 in 10.0 mi ENE 3.5 mph - N/A   Overcast
1:53 PM 51.1 °F - 46.0 °F 83% 30.14 in 10.0 mi Variable 3.5 mph - N/A   Mostly Cloudy
2:10 PM 51.1 °F - 46.0 °F 83% 30.14 in 10.0 mi NE 4.6 mph - N/A   Overcast
2:53 PM 51.1 °F - 46.0 °F 83% 30.14 in 10.0 mi Calm Calm - N/A   Overcast
3:05 PM 52.0 °F - 46.9 °F 83% 30.13 in 10.0 mi Calm Calm - N/A   Overcast
3:53 PM 53.1 °F - 46.0 °F 77% 30.13 in 10.0 mi East 3.5 mph - N/A   Overcast
4:17 PM 52.0 °F - 45.0 °F 77% 30.12 in 10.0 mi East 3.5 mph - N/A   Overcast
4:31 PM 52.0 °F - 46.0 °F 80% 30.12 in 10.0 mi East 3.5 mph - N/A   Overcast
4:53 PM 51.1 °F - 45.0 °F 80% 30.12 in 10.0 mi East 3.5 mph - N/A   Overcast
5:45 PM 51.1 °F - 44.1 °F 77% 30.11 in 10.0 mi ESE 4.6 mph - N/A   Overcast
5:53 PM 51.1 °F - 45.0 °F 80% 30.11 in 10.0 mi ESE 3.5 mph - N/A   Overcast
6:09 PM 51.1 °F - 45.0 °F 80% 30.10 in 10.0 mi ESE 3.5 mph - N/A   Overcast
6:53 PM 50.0 °F - 46.0 °F 86% 30.11 in 10.0 mi Calm Calm - N/A   Overcast
7:53 PM 50.0 °F - 46.0 °F 86% 30.10 in 10.0 mi Calm Calm - N/A   Overcast
8:53 PM 48.9 °F - 46.0 °F 90% 30.09 in 10.0 mi Calm Calm - N/A   Overcast
9:53 PM 48.9 °F - 46.9 °F 93% 30.09 in 10.0 mi Calm Calm - N/A   Overcast
10:53 PM 48.9 °F - 46.0 °F 90% 30.09 in 10.0 mi Calm Calm - N/A   Overcast
11:53 PM 48.0 °F - 46.0 °F 93% 30.08 in 10.0 mi Calm Calm - 0.00 in   Overcast